Location: Donzy-le-Pr�
(47.3659°N, 3.1107°E)
Time: 04:48:48
(UTC+00:00)

Cosmos 1707 Rocket - Pass Details

Date: 03 March 2021
Orbit: 604 x 632 km, 82.5° (Epoch: 22 April)

Event Time Altitude Azimuth Distance (km) Brightness Sun altitude
Rises 17:56:49 0° 351° (N) 2,908 7.1 -4.4°
Reaches altitude 10° 17:59:04 10° 352° (N) 1,993 6.2 -4.7°
Maximum altitude 18:03:29 81° 80° (E) 627 3.5 -5.5°
Drops below altitude 10° 18:07:50 10° 169° (S) 1,960 6.1 -6.2°
Sets 18:10:02 0° 170° (S) 2,855 6.9 -6.6°
